Cloud_Cover
100 59 97 60 89 100 100 91 81 20 97 68 5 24 30 57 12 17 5 10 5 52 15 83 5 36 12 91 95 100 84 17 2 3 5 5 97 46 95 100 52 79 84
100 100 60 98 100 92 62 8 20 59 98 100 61 6 6 11 6 5 7 5 5 5 8 5 4 5 14 7 83 45 1 3 11 6 7 10 17 59 90 100 64 5 12
76 86 100 99 66 88 87 39 10 99 68 16 5 5 13 20 17 6 5 5 9 2 0 10 5 6 99 100 100 73 0 0 2 3 5 5 81 100 100 95 5 1 5
98 83 81 38 77 60 61 96 13 54 87 100 36 54 100 100 97 100 17 0 0 9 93 100 61 42 70 100 100 77 0 2 0 0 5 43 94 100 100 100 6 11 19
15 29 20 28 100 88 64 23 51 100 99 100 99 100 100 100 100 20 3 4 3 49 100 83 1 0 0 1 1 0 0 0 4 2 13 37 100 100 100 42 6 8 30
22 67 100 53 39 5 5 45 17 85 99 68 98 100 44 100 11 5 5 14 100 100 2 0 0 0 0 0 0 0 0 0 0 5 69 68 98 100 89 8 14 48 100
32 61 5 31 5 5 76 51 47 92 96 75 96 90 23 95 58 5 28 100 12 5 0 0 0 0 0 0 0 0 0 0 5 6 28 88 99 100 94 10 88 100 100
90 6 5 5 46 66 83 70 93 71 33 98 98 95 100 83 63 91 100 98 5 0 0 0 0 0 0 0 0 0 0 3 5 5 15 84 51 100 10 97 100 100 96
1 1 4 5 11 15 98 100 100 100 100 64 99 100 100 100 79 53 17 0 0 0 0 0 0 0 0 0 0 0 0 0 5 21 42 54 73 32 14 100 100 100 4
14 0 3 16 61 92 92 99 100 100 100 13 100 100 100 68 100 73 0 0 0 0 0 0 0 0 0 0 0 0 0 0 2 28 6 49 99 6 5 100 100 81 8
35 7 87 99 94 70 100 99 96 98 100 100 100 100 100 92 4 40 44 99 31 0 0 0 0 0 0 0 0 0 0 1 5 49 44 55 94 5 11 100 100 35 5
10 35 68 100 100 99 94 100 100 100 100 93 100 64 4 7 52 23 7 80 7 0 0 0 0 0 0 0 0 0 0 4 4 17 7 25 6 5 11 96 100 63 32
0 2 100 16 100 80 99 54 90 74 27 51 44 0 0 0 85 9 15 33 0 0 0 0 0 0 0 0 0 0 0 0 1 5 38 80 5 5 5 100 69 92 9
0 0 3 29 25 5 13 41 70 28 51 5 0 0 0 0 90 100 19 0 0 0 0 0 0 0 0 0 0 0 0 0 0 5 24 28 5 6 5 9 58 59 39
1 0 0 0 0 5 5 13 3 0 1 0 0 0 0 0 5 0 0 0 0 0 0 0 0 0 0 0 0 0 0 0 0 1 12 68 29 5 5 47 51 28 15
22 0 0 0 0 0 1 0 0 0 0 0 0 0 0 0 0 0 0 0 0 0 0 0 0 0 0 0 0 0 0 0 0 0 1 8 42 5 12 49 50 31 5
100 5 0 3 3 0 0 0 0 0 0 0 0 0 0 0 0 0 0 0 0 0 0 0 0 0 0 0 0 0 0 0 0 0 0 5 5 26 89 43 72 16 18
19 39 0 0 0 3 0 0 0 0 0 0 0 0 0 0 0 0 0 0 0 0 0 0 0 0 0 0 0 0 0 0 0 0 0 0 4 14 6 24 84 35 31
78 99 16 0 0 0 0 0 0 0 0 0 0 0 0 0 0 0 0 5 5 3 3 2 5 5 5 4 1 0 0 0 0 0 2 1 2 5 5 7 61 67 95
100 99 100 94 9 0 0 0 0 0 0 0 0 0 0 0 0 0 1 10 27 21 24 22 5 5 5 5 5 5 5 5 0 0 0 0 0 0 5 5 5 25 5
90 100 95 100 96 0 0 0 0 0 0 0 0 0 0 0 0 0 0 0 5 5 5 10 9 5 5 5 5 5 5 5 5 2 0 0 0 0 5 5 4 10 40
1 92 100 75 89 4 0 0 0 0 0 0 0 0 0 0 0 0 0 0 2 50 36 23 100 92 87 35 62 90 6 43 4 5 4 0 5 6 4 5 8 1 4
98 72 100 74 5 2 0 0 0 0 0 0 0 0 0 0 0 0 0 0 2 0 0 34 100 100 100 100 77 99 52 12 95 100 8 0 5 0 5 5 5 1 2
100 81 39 100 100 5 10 0 0 0 0 0 0 0 0 0 0 0 0 0 0 0 0 2 2 84 100 100 50 62 21 33 100 100 98 91 4 0 5 5 5 5 2
100 99 79 88 100 96 8 5 0 0 0 0 0 0 0 0 0 0 0 0 0 0 0 0 4 5 46 1 2 5 5 10 62 99 100 100 96 5 2 5 5 5 5
100 96 99 83 100 100 5 96 0 0 0 0 4 0 0 0 0 0 0 0 0 0 0 0 0 6 83 90 100 100 100 26 5 34 12 19 52 5 3 0 5 5 5